ANGELS (44876 NORAD) Tracking and Keplerian Element Data

This shows tracking and keplerian element data for the satellite.

Feedback or suggestion? Click here.




ElementValue
Catalog44876
NameANGELS
Epoch Orbit455
Epoch Day17.47168517
Epoch Year2020
RAAN203.391
Inclination97.452
Eccentricity0.0012364
Argument of Perigee176.6818
Mean Anonmoly183.4541
Mean Motion15.16241962
Decay Rate-6.6E-07
L11 44876U 19092D 20017.47168517 -.00000066 00000-0 00000+0 0 9991
L22 44876 97.4520 203.3910 0012364 176.6818 183.4541 15.16241962 4556

Live tracking and technical data element details for ANGELS (NORAD 44876). ANGELS can be tracked NOW for your location showing map with azimuth and elevation plus other details from your city location.

Track the satellite on the map from your city or location and see movement details for azimuth, elevation, latitude, longitude, range, height, and movement on the map or in text.







IsCatalogInMostPopularTable: catalog: 44876, numindb: 5
Update: records affected: 1



GetName: 44876 ANGELS

Hit Count: updated at: Sat, 18 Jan 2020 17:29:12 GMT